Satellite: SO-50
Catalog number: 27607
Epoch time:      12123.86636391
Element set:    0752
Inclination:      064.5577 deg
RA of node:       072.7594 deg
Eccentricity:    0.0084403
Arg of perigee:   257.4206 deg
Mean anomaly:     101.7451 deg
Mean motion:   14.72339778 rev/day
Decay rate:       6.45e-06 rev/day^2
Epoch rev:           50329
Checksum:              319

Satellite: CO-55
Catalog number: 27844
Epoch time:      12123.57651556
Element set:     364
Inclination:      098.7031 deg
RA of node:       132.6178 deg
Eccentricity:    0.0010119
Arg of perigee:   359.5348 deg
Mean anomaly:     000.5809 deg
Mean motion:   14.21005118 rev/day
Decay rate:       2.95e-06 rev/day^2
Epoch rev:           45841
Checksum:              295

Satellite: CO-57
Catalog number: 27848
Epoch time:      12124.55816570
Element set:     316
Inclination:      098.7111 deg
RA of node:       132.8984 deg
Eccentricity:    0.0010125
Arg of perigee:   002.7918 deg
Mean anomaly:     357.3325 deg
Mean motion:   14.20759572 rev/day
Decay rate:       2.52e-06 rev/day^2
Epoch rev:           45849
Checksum:              315

Satellite: AO-51
Catalog number: 28375
Epoch time:      12123.87502217
Element set:     255
Inclination:      098.1432 deg
RA of node:       091.2703 deg
Eccentricity:    0.0082937
Arg of perigee:   177.7122 deg
Mean anomaly:     182.4478 deg
Mean motion:   14.40933001 rev/day
Decay rate:       1.67e-06 rev/day^2
Epoch rev:           41224
Checksum:              285

Satellite: CP3
Catalog number: 31129
Epoch time:      12124.59770282
Element set:     156
Inclination:      097.8840 deg
RA of node:       134.9996 deg
Eccentricity:    0.0099949
Arg of perigee:   262.0652 deg
Mean anomaly:     096.9155 deg
Mean motion:   14.53020717 rev/day
Decay rate:       4.90e-06 rev/day^2
Epoch rev:           26750
Checksum:              328

Satellite: CO-65
Catalog number: 32785
Epoch time:      12123.63138628
Element set:    0297
Inclination:      097.8045 deg
RA of node:       185.7545 deg
Eccentricity:    0.0013999
Arg of perigee:   207.6395 deg
Mean anomaly:     152.4029 deg
Mean motion:   14.82878543 rev/day
Decay rate:      1.088e-05 rev/day^2
Epoch rev:           21701
Checksum:              341

Satellite: PRISM
Catalog number: 33493
Epoch time:      12124.68546923
Element set:     663
Inclination:      098.1646 deg
RA of node:       264.2126 deg
Eccentricity:    0.0020178
Arg of perigee:   082.3366 deg
Mean anomaly:     278.0104 deg
Mean motion:   14.83676822 rev/day
Decay rate:      3.086e-05 rev/day^2
Epoch rev:           17715
Checksum:              308

Satellite: SOHLA-1
Catalog number: 33496
Epoch time:      12124.85911462
Element set:     717
Inclination:      098.1003 deg
RA of node:       236.8999 deg
Eccentricity:    0.0006636
Arg of perigee:   173.8339 deg
Mean anomaly:     186.2948 deg
Mean motion:   14.69938561 rev/day
Decay rate:       2.50e-06 rev/day^2
Epoch rev:           17573
Checksum:              339

Satellite: SO-67
Catalog number: 35870
Epoch time:      12124.92081140
Element set:     922
Inclination:      097.2371 deg
RA of node:       162.2263 deg
Eccentricity:    0.0001984
Arg of perigee:   017.5786 deg
Mean anomaly:     099.7352 deg
Mean motion:   15.23458112 rev/day
Decay rate:      4.020e-05 rev/day^2
Epoch rev:           14587
Checksum:              298

Satellite: TISAT-1
Catalog number: 36799
Epoch time:      12124.77584828
Element set:     939
Inclination:      098.0632 deg
RA of node:       200.7856 deg
Eccentricity:    0.0013984
Arg of perigee:   320.8460 deg
Mean anomaly:     039.1687 deg
Mean motion:   14.81806854 rev/day
Decay rate:      1.832e-05 rev/day^2
Epoch rev:            9791
Checksum:              347

Satellite: STUDSAT
Catalog number: 36801
Epoch time:      12123.83166135
Element set:    0395
Inclination:      098.0697 deg
RA of node:       200.3587 deg
Eccentricity:    0.0012007
Arg of perigee:   308.8248 deg
Mean anomaly:     051.1888 deg
Mean motion:   14.83885891 rev/day
Decay rate:      4.768e-05 rev/day^2
Epoch rev:           09779
Checksum:              335

Satellite: FO-69
Catalog number: 37227
Epoch time:      12124.33969264
Element set:    0172
Inclination:      071.9699 deg
RA of node:       050.9175 deg
Eccentricity:    0.0015628
Arg of perigee:   040.3476 deg
Mean anomaly:     319.8841 deg
Mean motion:   14.77031316 rev/day
Decay rate:       6.25e-06 rev/day^2
Epoch rev:           02947
Checksum:              324

Satellite: FO-70
Catalog number: 37380
Epoch time:      12124.33772588
Element set:    0174
Inclination:      071.9731 deg
RA of node:       051.4244 deg
Eccentricity:    0.0016246
Arg of perigee:   037.3123 deg
Mean anomaly:     322.9161 deg
Mean motion:   14.76785017 rev/day
Decay rate:       6.59e-06 rev/day^2
Epoch rev:           02936
Checksum:              299

Satellite: ALMASAT-1
Catalog number: 38078
Epoch time:      12124.80795957
Element set:     177
Inclination:      069.4953 deg
RA of node:       057.6968 deg
Eccentricity:    0.0764395
Arg of perigee:   304.0942 deg
Mean anomaly:     048.9780 deg
Mean motion:   14.08040818 rev/day
Decay rate:     2.0675e-04 rev/day^2
Epoch rev:            1130
Checksum:              338

